AirNav   Bose Proflight Series 2 Wireless viation Headset
 
 1351 users online  

72K Westport Auxiliary Airport
Wichita, Kansas, USA

GOING TO WICHITA?


FAA INFORMATION EFFECTIVE 10 OCTOBER 2019

Location

FAA Identifier: 72K
Lat/Long: 37-36-15.2000N 097-21-31.9000W
37-36.253333N 097-21.531667W
37.6042222,-97.3588611
(estimated)
Elevation: 1272 ft. / 388 m (estimated)
Variation: 07E (1985)
From city: 5 miles SW of WICHITA, KS
Time zone: UTC -5 (UTC -6 during Standard Time)
Zip code: 67217

Airport Operations

Airport use: Open to the public
Activation date: 02/1953
Control tower: no
ARTCC: KANSAS CITY CENTER
FSS: WICHITA FLIGHT SERVICE STATION
NOTAMs facility: ICT (NOTAM-D service available)
Attendance: UNATNDD
Wind indicator: yes
Segmented circle: no

Airport Communications

CTAF: 122.9
WX ASOS at ICT (4 nm NW): PHONE 316-945-8022
WX AWOS-3PT at BEC (9 nm NE): 119.45 (316-515-7116)
WX ASOS at AAO (11 nm NE): 134.025 (316-636-2541)
WX AWOS-3PT at 3AU (14 nm E): 124.175 (316-733-6696)
WX AWOS-3 at 1K1 (16 nm NE): 118.3 (316-530-6004)
WX AWOS-3 at EGT (17 nm S): 118.875 (620-326-2470)

Nearby radio navigation aids

VOR radial/distance  VOR name  Freq  Var
ICTr121/13.6WICHITA VORTAC113.8007E
HUTr127/36.0HUTCHINSON VOR/DME116.8004E

 
NDB name  Hdg/Dist  Freq  Var  ID
PICHE067/4.933204EIC .. -.-.
NEWTON182/27.928106EEWK . .-- -.-

Airport Services

Parking: hangars
Bulk oxygen: NONE

Runway Information

Runway 17/35

Dimensions: 2550 x 50 ft. / 777 x 15 m
Surface: turf, in fair condition
ROUGH & BUMPY.
RUNWAY 17  RUNWAY 35
Latitude: 37-36.463233N37-36.042997N
Longitude: 097-21.528400W097-21.535948W
Elevation: 1272.0 ft.1271.0 ft.
Traffic pattern: leftleft
Runway heading: 174 magnetic, 181 true354 magnetic, 001 true
Obstructions: 60 ft. pline, marked, 40 ft. from runway
POWER LINE MARKED WITH RED BALLS.
35 ft. trees, 30 ft. both sides of centerline

Airport Ownership and Management from official FAA records

Ownership: Privately-owned
Owner: EARL LONG
1801 W 47 ST S
WICHITA, KS 67217
Phone 316-943-5510
Manager: EARL LONG
1801 W 47 ST S
WICHITA, KS 67217
Phone 316-943-5510

Airport Operational Statistics

Aircraft based on the field: 2
Single engine airplanes: 2
    
Aircraft operations: 120/year *
83% local general aviation
17% transient general aviation
* for 12-month period ending 19 July 2019

Additional Remarks

ROAD CROSSES N END RY 17/35. 775' FROM APPROACH END RUNWAY 17 LARGE RIDGE AT CROSSING
IF CONDS FAVORABLE BALLON TFC IN AREA.
CROPS BOTH SIDES RWY 17/35
EDGE DROP OFF ALONG EAST EDGE RWY 17/35
FOR CD CTC WICHITA APCH AT 316-350-1520.
20 FT TREE 70 FT R RWY 35 NEAR MID FLD.

Instrument Procedures

There are no published instrument procedures at 72K.

Some nearby airports with instrument procedures:

KICT - Wichita Dwight D Eisenhower National Airport (4 nm NW)
KIAB - Mc Connell Air Force Base (4 nm E)
KCEA - Cessna Aircraft Field Airport (6 nm NE)
KBEC - Beech Factory Airport (9 nm NE)
KAAO - Colonel James Jabara Airport (11 nm NE)
3AU - Augusta Municipal Airport (14 nm E)
1K1 - Lloyd Stearman Field Airport (16 nm NE)
KEGT - Wellington Municipal Airport (17 nm S)
 
Loc | Ops | Rwys | IFR | FBO | Links
Com | Nav | Svcs | Stats | Notes

Kansas City Aviation Department
 
Area around 72K (Westport Auxiliary Airport)
 
Road maps at: MapQuest Bing Google
 
Aerial photo
No photo
 
Sectional chart

 
Airport distance calculator
Flying to Westport Auxiliary Airport? Find the distance to fly.

From to 72K

Sunrise and sunset
Times for 14-Oct-2019
 Local
(UTC-5)
 Zulu
(UTC)
Morning civil twilight07:1112:11
Sunrise07:3812:38
Sunset18:5323:53
Evening civil twilight19:2000:20

Current date and time
Zulu (UTC)  14-Oct-2019 18:07:53
Local (UTC-5)  14-Oct-2019 13:07:53
 
METAR
KIAB 
4nm E 
141756Z AUTO 13014G20KT 10SM CLR 23/10 A2992 RMK AO2 VIS 1 5/8 RWY01 SLP129 T02280099 10228 20092 57023 $
KICT 
4nm NW 
141753Z 14017KT 10SM CLR 23/12 A2991 RMK AO2 SLP121 T02330117 10233 20083 58024 $
KBEC 
9nm NE 
141755Z AUTO 16013G19KT 10SM CLR 23/12 A2992 RMK AO2 T02300116 10231 20068
KAAO 
11nm NE 
141754Z AUTO 15017G25KT 10SM CLR 23/11 A2992 RMK AO2 SLP126 T02280111 10233 20061 58023
K3AU 
14nm E 
141755Z AUTO 15019KT 10SM CLR 23/11 A2993 RMK AO2
K1K1 
16nm NE 
141755Z AUTO 16013G23KT 10SM CLR 22/11 A2993 RMK AO2 T02210113 10221 20063
TAF
KICT 
4nm NW 
141720Z 1418/1518 16016G24KT P6SM SKC FM150000 17008KT P6SM FEW250 FM150900 05006KT P6SM SCT020 BKN040 FM151300 01014G20KT P6SM SCT070 FM151600 36017G25KT P6SM SKC
NOTAMs
Click for the latest NOTAMs
NOTAMs are issued by the DoD/FAA and will open in a separate window not controlled by AirNav.

 

 
 

Would you like to see your business listed on this page?

 If your business provides an interesting product or service to pilots, flight crews, aircraft, or users of the Westport Auxiliary Airport, you should consider listing it here.  To start the listing process, click on the button below
 
Add a business
 

Other Pages about Westport Auxiliary Airport

Update a link
 
Copyright © AirNav, LLC. All rights reserved. Privacy Policy  Contact